Fairfield, CA

11:50 AM PST on December 16, 2017 (GMT -0800)
Travis Air Force Base

Weather History for KSUU - July, 2013

Change the Weather History Date:

Wednesday, July 3, 2013

  Actual Average Record
Temperature  
Mean Temperature 82 °F -  
Max Temperature 100 °F 85 °F 109 °F (2001)
Min Temperature 64 °F 55 °F 53 °F (1998)
Cooling Degree Days 17    
Growing Degree Days 32 (Base 50)    
Moisture  
Dew Point 59 °F    
Average Humidity 51    
Maximum Humidity 81    
Minimum Humidity 29    
Precipitation  
Precipitation 0.00 in - - ()
Sea Level Pressure  
Sea Level Pressure 29.79 in    
Wind  
Wind Speed 17 mph (WSW)    
Max Wind Speed 26 mph    
Max Gust Speed 26 mph    
Visibility 10 miles    
Events      
Averages and records for this station are not official NWS values.
T = Trace of Precipitation, MM = Missing Value Source: NWS Daily Summary

Daily Weather History Graph

Daily Weather History Graph

Search for Another Location

Airport or City:

Trip Planner

Search our weather history database for the weather conditions in past years. The results will help you decide how hot, cold, wet, or windy it might be!

Date:

Astronomy

Jul. 03, 2013 Rise Set
Actual Time 5:49 AM PDT 8:34 PM PDT
Civil Twilight 5:17 AM PDT 9:06 PM PDT
Nautical Twilight 4:38 AM PDT 9:45 PM PDT
Astronomical Twilight 3:53 AM PDT 10:29 PM PDT
Moon 2:28 AM PDT (7/3) 4:51 PM PDT (7/3)
Length of Visible Light 15h 48m
Length of Day
14h 45m
Waning Crescent, 17% of the Moon is Illuminated
Jul 3
Waning Crescent
Jul 8
New
Jul 15
First Quarter
Jul 22
Full
Jul 29
Last Quarter

Hourly Weather History & Observations

Time (PDT) Temp. Heat Index Dew Point Humidity Pressure Visibility Wind Dir Wind Speed Gust Speed Precip Events Conditions
12:58 AM 67.3 °F - 56.7 °F 69% 29.84 in 10.0 mi WSW 21.9 mph - N/A   Clear
1:58 AM 68.5 °F - 57.0 °F 67% 29.85 in 10.0 mi WSW 16.1 mph - N/A   Clear
2:58 AM 69.1 °F - 57.4 °F 66% 29.84 in 10.0 mi WSW 13.8 mph - N/A   Clear
3:58 AM 66.4 °F - 57.7 °F 74% 29.85 in 10.0 mi WSW 13.8 mph - N/A   Clear
4:58 AM 64.8 °F - 58.8 °F 81% 29.84 in 10.0 mi WSW 15.0 mph - N/A   Clear
5:58 AM 64.8 °F - 58.8 °F 81% 29.84 in 10.0 mi WSW 16.1 mph - N/A   Clear
6:58 AM 65.5 °F - 58.6 °F 79% 29.85 in 10.0 mi WSW 16.1 mph - N/A   Clear
7:58 AM 71.1 °F - 58.8 °F 65% 29.86 in 10.0 mi WSW 15.0 mph - N/A   Clear
8:58 AM 76.5 °F - 59.2 °F 55% 29.86 in 10.0 mi WSW 16.1 mph - N/A   Clear
9:58 AM 82.2 °F 82.3 °F 59.0 °F 45% 29.85 in 10.0 mi WSW 11.5 mph - N/A   Clear
10:58 AM 88.3 °F 87.8 °F 59.7 °F 38% 29.84 in 10.0 mi West 12.7 mph - N/A   Clear
11:58 AM 91.0 °F 90.5 °F 59.7 °F 35% 29.83 in 10.0 mi West 13.8 mph - N/A   Clear
12:58 PM 94.6 °F 94.7 °F 60.8 °F 32% 29.81 in 10.0 mi WSW 8.1 mph - N/A   Clear
1:58 PM 97.9 °F 98.8 °F 61.2 °F 30% 29.80 in 10.0 mi WSW 16.1 mph - N/A   Partly Cloudy
2:58 PM 99.9 °F 101.5 °F 61.9 °F 29% 29.76 in 10.0 mi WSW 16.1 mph - N/A   Clear
3:58 PM 99.0 °F 100.0 °F 61.2 °F 29% 29.74 in 10.0 mi West 19.6 mph - N/A   Clear
4:58 PM 100.4 °F 102.4 °F 62.4 °F 29% 29.71 in 10.0 mi WSW 20.7 mph - N/A   Clear
5:58 PM 95.4 °F 95.3 °F 60.1 °F 31% 29.71 in 10.0 mi WSW 26.5 mph - N/A   Clear
6:58 PM 91.9 °F 91.5 °F 59.5 °F 34% 29.71 in 10.0 mi WSW 21.9 mph - N/A   Clear
7:58 PM 85.3 °F 84.8 °F 59.2 °F 41% 29.70 in 10.0 mi WSW 21.9 mph 26.5 mph N/A   Clear
8:58 PM 79.0 °F - 57.4 °F 47% 29.71 in 10.0 mi WSW 19.6 mph - N/A   Clear
9:58 PM 75.4 °F - 57.9 °F 54% 29.73 in 10.0 mi WSW 20.7 mph - N/A   Clear
10:58 PM 73.2 °F - 58.3 °F 59% 29.72 in 10.0 mi WSW 18.4 mph - N/A   Clear
11:58 PM 72.7 °F - 58.8 °F 62% 29.71 in 10.0 mi WSW 17.3 mph - N/A   Clear